Newport News, VA

7:12 AM EDT on May 29, 2017 (GMT -0400)
Newport News-Williamsburg International

Weather History for KPHF - October, 2013

Change the Weather History Date:

Saturday, October 12, 2013

  Actual Average Record
Temperature  
Mean Temperature 70 °F -  
Max Temperature 73 °F 71 °F 86 °F (1962)
Min Temperature 68 °F 52 °F 37 °F (1951)
Cooling Degree Days 6    
Growing Degree Days 20 (Base 50)    
Moisture  
Dew Point 66 °F    
Average Humidity 86    
Maximum Humidity 90    
Minimum Humidity 81    
Precipitation  
Precipitation 0.21 in - - ()
Sea Level Pressure  
Sea Level Pressure 29.98 in    
Wind  
Wind Speed 6 mph (NNE)    
Max Wind Speed 13 mph    
Max Gust Speed 17 mph    
Visibility 5 miles    
Events Rain    
Averages and records for this station are not official NWS values.
T = Trace of Precipitation, MM = Missing Value Source: NWS Daily Summary

Daily Weather History Graph

Daily Weather History Graph

Search for Another Location

Airport or City:

Trip Planner

Search our weather history database for the weather conditions in past years. The results will help you decide how hot, cold, wet, or windy it might be!

Date:

Astronomy

Oct. 12, 2013 Rise Set
Actual Time 7:11 AM EDT 6:32 PM EDT
Civil Twilight 6:45 AM EDT 6:59 PM EDT
Nautical Twilight 6:14 AM EDT 7:29 PM EDT
Astronomical Twilight 5:44 AM EDT 7:59 PM EDT
Moon 2:33 PM EDT (10/12) 12:20 AM EDT (10/12)
Length of Visible Light 12h 13m
Length of Day
11h 21m
First Quarter, 58% of the Moon is Illuminated
Oct 12
First Quarter
Oct 18
Full
Oct 26
Last Quarter
Nov 3
New
Nov 10
First Quarter

Hourly Weather History & Observations

Time (EDT) Temp. Dew Point Humidity Pressure Visibility Wind Dir Wind Speed Gust Speed Precip Events Conditions
12:54 AM 68.0 °F 64.0 °F 87% 29.90 in 10.0 mi NNW 5.8 mph - N/A   Overcast
1:50 AM 68.0 °F 64.4 °F 88% 29.91 in 2.0 mi NNW 4.6 mph - N/A   Overcast
1:54 AM 68.0 °F 64.0 °F 87% 29.91 in 2.5 mi Calm Calm - N/A   Overcast
2:05 AM 68.0 °F 64.4 °F 88% 29.91 in 5.0 mi Calm Calm - N/A   Overcast
2:54 AM 68.0 °F 64.9 °F 90% 29.90 in 6.0 mi Calm Calm - 0.00 in   Overcast
3:24 AM 68.0 °F 64.4 °F 88% 29.90 in 4.0 mi NNW 3.5 mph - 0.01 in   Overcast
3:54 AM 68.0 °F 64.9 °F 90% 29.90 in 10.0 mi NW 4.6 mph - 0.01 in   Overcast
4:05 AM 68.0 °F 64.4 °F 88% 29.90 in 9.0 mi NW 3.5 mph - N/A   Overcast
4:54 AM 69.1 °F 64.9 °F 87% 29.92 in 3.0 mi NNW 3.5 mph - 0.01 in Rain Light Rain
5:12 AM 69.8 °F 64.4 °F 83% 29.92 in 4.0 mi NW 3.5 mph - 0.01 in Rain Light Rain
5:54 AM 69.1 °F 64.9 °F 87% 29.92 in 4.0 mi Calm Calm - 0.02 in Rain Light Rain
6:54 AM 69.1 °F 66.0 °F 90% 29.94 in 5.0 mi North 4.6 mph - 0.01 in   Overcast
7:54 AM 69.1 °F 66.0 °F 90% 29.95 in 4.0 mi North 4.6 mph - 0.00 in   Overcast
8:06 AM 69.8 °F 66.2 °F 88% 29.95 in 2.0 mi North 6.9 mph - 0.01 in Rain Light Rain
8:18 AM 69.8 °F 66.2 °F 88% 29.96 in 6.0 mi North 5.8 mph - 0.01 in   Overcast
8:32 AM 69.8 °F 66.2 °F 88% 29.96 in 5.0 mi North 4.6 mph - 0.01 in   Overcast
8:54 AM 70.0 °F 66.0 °F 87% 29.97 in 3.0 mi North 5.8 mph - 0.01 in   Overcast
9:54 AM 71.1 °F 66.9 °F 87% 29.98 in 2.5 mi North 8.1 mph - 0.00 in   Overcast
10:03 AM 71.6 °F 66.2 °F 83% 29.98 in 4.0 mi NNE 9.2 mph - 0.00 in Rain Light Rain
10:09 AM 71.6 °F 66.2 °F 83% 29.98 in 2.5 mi NNE 5.8 mph - 0.00 in Rain Light Rain
10:23 AM 71.6 °F 66.2 °F 83% 29.98 in 1.8 mi NE 10.4 mph - 0.00 in Rain Light Rain
10:34 AM 71.6 °F 66.2 °F 83% 29.98 in 2.5 mi NE 6.9 mph - 0.01 in Rain Light Rain
10:41 AM 71.6 °F 66.2 °F 83% 29.98 in 7.0 mi NE 8.1 mph - 0.01 in   Overcast
10:51 AM 71.6 °F 66.2 °F 83% 29.98 in 1.8 mi NNE 6.9 mph - 0.01 in Rain Light Rain
10:54 AM 71.1 °F 66.9 °F 87% 29.98 in 1.5 mi NNE 8.1 mph - 0.01 in Rain Light Rain
11:01 AM 71.6 °F 66.2 °F 83% 29.99 in 2.0 mi NNE 8.1 mph - 0.01 in Rain Light Rain
11:10 AM 71.6 °F 66.2 °F 83% 29.99 in 6.0 mi NE 8.1 mph - 0.01 in   Overcast
11:38 AM 71.6 °F 66.2 °F 83% 29.99 in 2.0 mi NNE 6.9 mph - 0.01 in   Haze
11:50 AM 71.6 °F 66.2 °F 83% 29.99 in 4.0 mi NE 5.8 mph - 0.01 in   Haze
11:54 AM 72.0 °F 66.9 °F 84% 29.99 in 4.0 mi NNE 5.8 mph - 0.01 in   Haze
12:15 PM 71.6 °F 68.0 °F 88% 29.99 in 1.8 mi NNE 5.8 mph - 0.00 in Rain Light Rain
12:28 PM 71.6 °F 68.0 °F 88% 29.99 in 3.0 mi NNE 9.2 mph - 0.00 in Rain Light Rain
12:41 PM 71.6 °F 68.0 °F 88% 29.99 in 1.8 mi NE 8.1 mph - 0.00 in Rain Light Rain
12:54 PM 72.0 °F 68.0 °F 87% 29.99 in 1.8 mi NE 8.1 mph - 0.02 in Rain Light Rain
1:23 PM 71.6 °F 68.0 °F 88% 29.98 in 2.5 mi ENE 12.7 mph - 0.04 in Rain Light Rain
1:42 PM 71.6 °F 66.2 °F 83% 29.98 in 3.0 mi ENE 9.2 mph - 0.04 in Rain Light Rain
1:51 PM 71.6 °F 68.0 °F 88% 29.98 in 2.5 mi ENE 6.9 mph - 0.04 in   Overcast
1:54 PM 72.0 °F 68.0 °F 87% 29.98 in 2.5 mi NE 9.2 mph - 0.04 in   Overcast
2:19 PM 73.4 °F 68.0 °F 83% 29.98 in 5.0 mi NE 9.2 mph - 0.00 in   Haze
2:32 PM 73.4 °F 68.0 °F 83% 29.98 in 10.0 mi NE 11.5 mph - 0.00 in   Overcast
2:54 PM 73.0 °F 66.9 °F 81% 29.98 in 10.0 mi ENE 8.1 mph - 0.00 in   Overcast
3:12 PM 71.6 °F 68.0 °F 88% 29.98 in 4.0 mi ENE 10.4 mph - 0.00 in   Overcast
3:42 PM 73.4 °F 68.0 °F 83% 29.99 in 10.0 mi ENE 9.2 mph - 0.00 in   Overcast
3:54 PM 73.0 °F 68.0 °F 84% 29.99 in 7.0 mi NE 8.1 mph - 0.00 in   Overcast
4:02 PM 73.4 °F 68.0 °F 83% 29.99 in 4.0 mi NE 10.4 mph - 0.00 in Rain Light Rain
4:11 PM 71.6 °F 66.2 °F 83% 30.00 in 2.0 mi NE 9.2 mph - 0.01 in Rain Light Rain
4:18 PM 71.6 °F 68.0 °F 88% 30.00 in 2.5 mi NE 6.9 mph - 0.01 in Rain Light Rain
4:26 PM 71.6 °F 68.0 °F 88% 30.00 in 5.0 mi ENE 8.1 mph - 0.01 in   Overcast
4:54 PM 72.0 °F 66.9 °F 84% 30.00 in 5.0 mi NE 4.6 mph - 0.01 in Rain Light Rain
5:25 PM 71.6 °F 66.2 °F 83% 30.01 in 2.5 mi NNE 6.9 mph - 0.02 in Rain Light Rain
5:32 PM 71.6 °F 66.2 °F 83% 30.01 in 7.0 mi NE 6.9 mph - 0.02 in Rain Light Rain
5:54 PM 71.1 °F 66.0 °F 84% 30.02 in 7.0 mi NNE 11.5 mph 16.1 mph 0.03 in Rain Light Rain
6:54 PM 70.0 °F 66.0 °F 87% 30.04 in 3.0 mi NNE 8.1 mph 17.3 mph 0.03 in Rain Light Rain
7:54 PM 69.1 °F 64.9 °F 87% 30.05 in 10.0 mi NNE 9.2 mph 17.3 mph 0.00 in   Overcast
8:54 PM 68.0 °F 64.0 °F 87% 30.06 in 10.0 mi NNE 8.1 mph - 0.00 in   Overcast
9:54 PM 68.0 °F 64.0 °F 87% 30.06 in 10.0 mi NNE 10.4 mph - N/A   Overcast
10:54 PM 68.0 °F 64.0 °F 87% 30.07 in 10.0 mi NNE 6.9 mph - N/A   Overcast
11:27 PM 68.0 °F 64.4 °F 88% 30.07 in 10.0 mi North 6.9 mph - N/A   Overcast
11:54 PM 68.0 °F 64.0 °F 87% 30.07 in 10.0 mi North 4.6 mph - N/A   Overcast